Time,TemperatureF,DewpointF,PressureIn,WindDirection,WindDirectionDegrees,WindSpeedMPH,WindSpeedGustMPH,Humidity,HourlyPrecipIn,Conditions,Clouds,dailyrainin,SoftwareType,DateUTC
2013-07-05 00:00:00,71.2,69.7,30.10,SE,141,0.0,0.0,95,0.00,,---,0.00,VWS V14.01,2013-07-05 04:00:00,
2013-07-05 00:01:00,71.1,69.6,30.10,SE,141,0.0,0.0,95,0.00,,---,0.00,VWS V14.01,2013-07-05 04:01:00,
2013-07-05 00:02:00,71.1,69.6,30.10,SE,141,0.0,0.0,95,0.00,,---,0.00,VWS V14.01,2013-07-05 04:02:00,
2013-07-05 00:10:00,72.3,70.5,30.10,SE,138,0.0,0.0,94,0.00,,---,0.09,VWS V14.01,2013-07-05 04:10:00,
2013-07-05 00:20:00,72.0,70.2,30.10,SE,139,0.0,0.0,94,0.00,,---,0.09,VWS V14.01,2013-07-05 04:20:00,
2013-07-05 00:30:00,71.9,70.4,30.10,SE,138,0.0,0.0,95,0.00,,---,0.09,VWS V14.01,2013-07-05 04:30:00,
2013-07-05 00:40:00,71.6,69.8,30.10,SE,139,0.0,0.0,94,0.00,,---,0.09,VWS V14.01,2013-07-05 04:40:00,
2013-07-05 00:50:00,71.5,70.0,30.10,SE,141,0.0,0.0,95,0.00,,---,0.09,VWS V14.01,2013-07-05 04:50:00,
2013-07-05 01:00:00,71.2,69.7,30.10,SE,141,0.0,0.0,95,0.00,,---,0.00,VWS V14.01,2013-07-05 05:00:00,
2013-07-05 06:34:00,68.3,67.1,30.10,SW,233,0.0,0.0,96,0.00,,---,0.00,VWS V14.01,2013-07-05 10:34:00,
2013-07-05 06:39:00,68.5,67.3,30.10,SW,233,0.0,0.0,96,0.00,,---,0.00,VWS V14.01,2013-07-05 10:39:00,
2013-07-05 06:40:00,68.5,67.3,30.10,SW,233,0.0,0.0,96,0.00,,---,0.00,VWS V14.01,2013-07-05 10:40:00,
2013-07-05 06:43:00,68.6,67.4,30.10,SW,233,0.0,0.0,96,0.00,,---,0.00,VWS V14.01,2013-07-05 10:43:00,
2013-07-05 06:49:00,68.8,67.6,30.10,SW,233,0.0,0.0,96,0.00,,---,0.00,VWS V14.01,2013-07-05 10:49:00,
2013-07-05 06:50:00,68.8,67.6,30.10,SW,233,0.0,0.0,96,0.00,,---,0.00,VWS V14.01,2013-07-05 10:50:00,
2013-07-05 06:54:00,68.9,67.4,30.10,SW,233,0.0,0.0,95,0.00,,---,0.00,VWS V14.01,2013-07-05 10:54:00,
2013-07-05 06:59:00,69.0,67.5,30.10,SW,234,0.0,0.0,95,0.00,,---,0.00,VWS V14.01,2013-07-05 10:59:00,
2013-07-05 07:00:00,69.0,67.5,30.10,SW,233,0.0,0.0,95,0.00,,---,0.00,VWS V14.01,2013-07-05 11:00:00,
2013-07-05 07:04:00,69.3,67.8,30.10,SW,233,0.0,0.0,95,0.00,,---,0.00,VWS V14.01,2013-07-05 11:04:00,
2013-07-05 07:09:00,69.5,68.0,30.10,SW,233,0.0,0.0,95,0.00,,---,0.00,VWS V14.01,2013-07-05 11:09:00,
2013-07-05 07:10:00,69.5,68.0,30.10,SW,233,0.0,0.0,95,0.00,,---,0.00,VWS V14.01,2013-07-05 11:10:00,
2013-07-05 07:14:00,69.9,68.4,30.10,South,187,0.0,0.0,95,0.00,,---,0.00,VWS V14.01,2013-07-05 11:14:00,
2013-07-05 07:20:00,70.1,68.3,30.10,South,187,0.0,0.0,94,0.00,,---,0.00,VWS V14.01,2013-07-05 11:20:00,
2013-07-05 07:26:00,70.5,68.7,30.10,South,187,0.0,0.0,94,0.00,,---,0.00,VWS V14.01,2013-07-05 11:26:00,
2013-07-05 07:30:00,70.5,68.4,30.10,South,187,0.0,0.0,93,0.00,,---,0.00,VWS V14.01,2013-07-05 11:30:00,
2013-07-05 07:31:00,70.6,68.5,30.10,South,187,0.0,0.0,93,0.00,,---,0.00,VWS V14.01,2013-07-05 11:31:00,
2013-07-05 07:36:00,70.7,68.6,30.10,South,187,0.0,0.0,93,0.00,,---,0.00,VWS V14.01,2013-07-05 11:36:00,
2013-07-05 07:40:00,70.7,68.3,30.10,South,187,0.0,0.0,92,0.00,,---,0.00,VWS V14.01,2013-07-05 11:40:00,
2013-07-05 07:41:00,70.7,68.3,30.10,South,187,0.0,0.0,92,0.00,,---,0.00,VWS V14.01,2013-07-05 11:41:00,
2013-07-05 07:46:00,70.9,68.8,30.10,South,187,0.0,0.0,93,0.00,,---,0.00,VWS V14.01,2013-07-05 11:46:00,
2013-07-05 07:50:00,71.0,68.9,30.10,South,187,0.0,0.0,93,0.00,,---,0.00,VWS V14.01,2013-07-05 11:50:00,
2013-07-05 07:51:00,71.0,68.6,30.10,South,187,0.0,0.0,92,0.00,,---,0.00,VWS V14.01,2013-07-05 11:51:00,
2013-07-05 07:56:00,71.1,68.3,30.10,South,187,0.0,0.0,91,0.00,,---,0.00,VWS V14.01,2013-07-05 11:56:00,
2013-07-05 08:00:00,71.4,69.0,30.10,South,187,0.0,0.0,92,0.00,,---,0.00,VWS V14.01,2013-07-05 12:00:00,
2013-07-05 08:01:00,71.5,68.7,30.10,South,187,0.0,0.0,91,0.00,,---,0.00,VWS V14.01,2013-07-05 12:01:00,
2013-07-05 08:06:00,71.9,68.8,30.11,South,188,0.0,0.0,90,0.00,,---,0.00,VWS V14.01,2013-07-05 12:06:00,
2013-07-05 08:10:00,72.1,68.7,30.11,SSW,192,0.0,0.0,89,0.00,,---,0.00,VWS V14.01,2013-07-05 12:10:00,
2013-07-05 08:12:00,72.5,68.8,30.11,SSW,210,0.0,0.0,88,0.00,,---,0.00,VWS V14.01,2013-07-05 12:12:00,
2013-07-05 08:17:00,72.9,68.8,30.11,SSW,210,0.0,0.0,87,0.00,,---,0.00,VWS V14.01,2013-07-05 12:17:00,
2013-07-05 08:20:00,73.0,68.9,30.11,SSW,210,0.0,0.0,87,0.00,,---,0.00,VWS V14.01,2013-07-05 12:20:00,
2013-07-05 08:22:00,73.3,68.9,30.11,SSW,210,0.0,0.0,86,0.00,,---,0.00,VWS V14.01,2013-07-05 12:22:00,
2013-07-05 08:27:00,74.0,69.6,30.11,SSW,211,0.0,0.0,86,0.00,,---,0.00,VWS V14.01,2013-07-05 12:27:00,
2013-07-05 08:30:00,74.2,69.4,30.11,ESE,105,0.0,0.0,85,0.00,,---,0.00,VWS V14.01,2013-07-05 12:30:00,
2013-07-05 08:32:00,74.8,69.7,30.11,SSE,152,0.0,1.0,84,0.00,,---,0.00,VWS V14.01,2013-07-05 12:32:00,
2013-07-05 08:38:00,75.7,69.5,30.11,SSW,203,1.0,4.0,81,0.00,,---,0.00,VWS V14.01,2013-07-05 12:38:00,
2013-07-05 08:40:00,75.9,69.3,30.11,SE,126,0.0,4.0,80,0.00,,---,0.00,VWS V14.01,2013-07-05 12:40:00,
2013-07-05 08:43:00,76.7,70.1,30.11,SSW,202,4.0,4.0,80,0.00,,---,0.00,VWS V14.01,2013-07-05 12:43:00,
2013-07-05 08:48:00,77.5,70.1,30.11,WSW,252,1.0,7.0,78,0.00,,---,0.00,VWS V14.01,2013-07-05 12:48:00,
2013-07-05 08:50:00,77.6,70.2,30.11,WSW,246,0.0,7.0,78,0.00,,---,0.00,VWS V14.01,2013-07-05 12:50:00,
2013-07-05 08:53:00,78.1,69.9,30.11,SW,233,3.0,5.0,76,0.00,,---,0.00,VWS V14.01,2013-07-05 12:53:00,
2013-07-05 08:58:00,78.2,69.2,30.11,SW,233,1.0,8.0,74,0.00,,---,0.00,VWS V14.01,2013-07-05 12:58:00,
2013-07-05 09:00:00,78.2,69.2,30.11,SW,232,2.0,8.0,74,0.00,,---,0.00,VWS V14.01,2013-07-05 13:00:00,
2013-07-05 09:03:00,78.1,69.1,30.11,SSW,199,5.0,6.0,74,0.00,,---,0.00,VWS V14.01,2013-07-05 13:03:00,
2013-07-05 09:08:00,78.3,69.7,30.11,West,275,3.0,6.0,75,0.00,,---,0.00,VWS V14.01,2013-07-05 13:08:00,
2013-07-05 09:10:00,78.4,69.4,30.11,WSW,242,3.0,6.0,74,0.00,,---,0.00,VWS V14.01,2013-07-05 13:10:00,
2013-07-05 09:13:00,78.7,70.5,30.11,ENE,58,0.0,3.0,76,0.00,,---,0.00,VWS V14.01,2013-07-05 13:13:00,
2013-07-05 09:18:00,78.8,69.4,30.11,WSW,248,0.0,9.0,73,0.00,,---,0.00,VWS V14.01,2013-07-05 13:18:00,
2013-07-05 09:20:00,78.8,69.4,30.11,SW,217,4.0,9.0,73,0.00,,---,0.00,VWS V14.01,2013-07-05 13:20:00,
2013-07-05 09:23:00,78.7,68.5,30.11,SW,226,3.0,7.0,71,0.00,,---,0.00,VWS V14.01,2013-07-05 13:23:00,
2013-07-05 09:28:00,78.7,69.3,30.11,SSW,211,4.0,7.0,73,0.00,,---,0.00,VWS V14.01,2013-07-05 13:28:00,
2013-07-05 09:30:00,78.7,69.3,30.11,WSW,249,0.0,7.0,73,0.00,,---,0.00,VWS V14.01,2013-07-05 13:30:00,
2013-07-05 09:33:00,78.6,69.2,30.11,SW,217,1.0,8.0,73,0.00,,---,0.00,VWS V14.01,2013-07-05 13:33:00,
2013-07-05 09:38:00,78.7,69.3,30.11,SSW,205,0.0,8.0,73,0.00,,---,0.00,VWS V14.01,2013-07-05 13:38:00,
2013-07-05 09:40:00,78.7,69.3,30.11,SSW,205,0.0,8.0,73,0.00,,---,0.00,VWS V14.01,2013-07-05 13:40:00,
2013-07-05 09:43:00,78.7,69.3,30.11,WSW,246,1.0,7.0,73,0.00,,---,0.00,VWS V14.01,2013-07-05 13:43:00,
2013-07-05 09:49:00,78.7,69.3,30.12,South,180,1.0,1.0,73,0.00,,---,0.00,VWS V14.01,2013-07-05 13:49:00,
2013-07-05 09:50:00,78.8,69.4,30.12,SSW,207,0.0,7.0,73,0.00,,---,0.00,VWS V14.01,2013-07-05 13:50:00,
2013-07-05 09:54:00,78.7,68.9,30.11,WSW,245,4.0,7.0,72,0.00,,---,0.00,VWS V14.01,2013-07-05 13:54:00,
2013-07-05 09:59:00,78.7,68.9,30.11,West,259,0.0,0.0,72,0.00,,---,0.00,VWS V14.01,2013-07-05 13:59:00,
2013-07-05 10:00:00,78.7,68.9,30.11,SW,217,0.0,7.0,72,0.00,,---,0.00,VWS V14.01,2013-07-05 14:00:00,
2013-07-05 10:05:00,78.8,69.0,30.11,SSW,201,2.0,6.0,72,0.00,,---,0.00,VWS V14.01,2013-07-05 14:05:00,
2013-07-05 10:10:00,79.1,68.9,30.11,SSW,205,4.0,6.0,71,0.00,,---,0.00,VWS V14.01,2013-07-05 14:10:00,
2013-07-05 10:15:00,79.3,69.5,30.11,SSW,209,3.0,7.0,72,0.00,,---,0.00,VWS V14.01,2013-07-05 14:15:00,
2013-07-05 10:20:00,79.5,69.3,30.11,South,191,2.0,6.0,71,0.00,,---,0.00,VWS V14.01,2013-07-05 14:20:00,
2013-07-05 10:25:00,79.9,70.1,30.11,South,186,2.0,8.0,72,0.00,,---,0.00,VWS V14.01,2013-07-05 14:25:00,
2013-07-05 10:30:00,80.4,69.7,30.11,West,272,2.0,6.0,70,0.00,,---,0.00,VWS V14.01,2013-07-05 14:30:00,
2013-07-05 10:35:00,80.7,68.7,30.11,SW,230,4.0,11.0,67,0.00,,---,0.00,VWS V14.01,2013-07-05 14:35:00,
2013-07-05 10:40:00,81.3,68.4,30.12,South,190,11.0,13.0,65,0.00,,---,0.00,VWS V14.01,2013-07-05 14:40:00,
2013-07-05 10:45:00,81.5,68.2,30.11,SSW,209,5.0,14.0,64,0.00,,---,0.00,VWS V14.01,2013-07-05 14:45:00,
2013-07-05 10:50:00,81.9,69.4,30.12,SSW,211,5.0,14.0,66,0.00,,---,0.00,VWS V14.01,2013-07-05 14:50:00,
2013-07-05 10:51:00,82.0,69.1,30.12,SW,229,5.0,9.0,65,0.00,,---,0.00,VWS V14.01,2013-07-05 14:51:00,
2013-07-05 10:56:00,82.6,69.7,30.12,SSW,203,7.0,10.0,65,0.00,,---,0.00,VWS V14.01,2013-07-05 14:56:00,
2013-07-05 11:00:00,82.5,69.1,30.12,SSW,193,5.0,10.0,64,0.00,,---,0.00,VWS V14.01,2013-07-05 15:00:00,
2013-07-05 11:02:00,82.7,69.8,30.11,SSW,203,6.0,9.0,65,0.00,,---,0.00,VWS V14.01,2013-07-05 15:02:00,
2013-07-05 11:07:00,83.5,70.1,30.11,SSW,205,1.0,10.0,64,0.00,,---,0.00,VWS V14.01,2013-07-05 15:07:00,
2013-07-05 11:10:00,83.6,68.7,30.11,South,178,2.0,10.0,61,0.00,,---,0.00,VWS V14.01,2013-07-05 15:10:00,
2013-07-05 11:12:00,83.7,70.2,30.11,WSW,248,1.0,6.0,64,0.00,,---,0.00,VWS V14.01,2013-07-05 15:12:00,
2013-07-05 11:18:00,83.7,69.8,30.12,SW,232,2.0,9.0,63,0.00,,---,0.00,VWS V14.01,2013-07-05 15:18:00,
2013-07-05 11:20:00,83.7,69.8,30.12,WSW,245,6.0,9.0,63,0.00,,---,0.00,VWS V14.01,2013-07-05 15:20:00,
2013-07-05 11:23:00,83.3,68.5,30.12,SSW,196,10.0,15.0,61,0.00,,---,0.00,VWS V14.01,2013-07-05 15:23:00,
2013-07-05 11:28:00,82.9,69.5,30.12,SW,229,3.0,15.0,64,0.00,,---,0.00,VWS V14.01,2013-07-05 15:28:00,
2013-07-05 11:30:00,82.9,69.5,30.12,WSW,250,0.0,15.0,64,0.00,,---,0.00,VWS V14.01,2013-07-05 15:30:00,
2013-07-05 11:33:00,83.1,69.7,30.12,West,261,3.0,8.0,64,0.00,,---,0.00,VWS V14.01,2013-07-05 15:33:00,
2013-07-05 11:38:00,83.2,69.3,30.12,WSW,249,4.0,12.0,63,0.00,,---,0.00,VWS V14.01,2013-07-05 15:38:00,
2013-07-05 11:40:00,83.3,69.9,30.12,SW,234,2.0,12.0,64,0.00,,---,0.00,VWS V14.01,2013-07-05 15:40:00,
2013-07-05 11:43:00,83.7,70.2,30.12,SW,223,9.0,9.0,64,0.00,,---,0.00,VWS V14.01,2013-07-05 15:43:00,
2013-07-05 11:48:00,83.5,68.7,30.12,SW,225,3.0,14.0,61,0.00,,---,0.00,VWS V14.01,2013-07-05 15:48:00,
2013-07-05 11:50:00,83.5,68.7,30.12,SW,230,4.0,8.0,61,0.00,,---,0.00,VWS V14.01,2013-07-05 15:50:00,
2013-07-05 11:55:00,83.7,69.8,30.12,South,176,8.0,13.0,63,0.00,,---,0.00,VWS V14.01,2013-07-05 15:55:00,
2013-07-05 12:00:00,83.8,68.9,30.12,SW,236,1.0,7.0,61,0.00,,---,0.00,VWS V14.01,2013-07-05 16:00:00,
2013-07-05 12:05:00,84.1,69.2,30.12,SW,230,4.0,9.0,61,0.00,,---,0.00,VWS V14.01,2013-07-05 16:05:00,
2013-07-05 12:10:00,84.5,68.6,30.12,SW,229,11.0,14.0,59,0.00,,---,0.00,VWS V14.01,2013-07-05 16:10:00,
2013-07-05 12:15:00,84.1,67.2,30.12,SW,219,9.0,14.0,57,0.00,,---,0.00,VWS V14.01,2013-07-05 16:15:00,
2013-07-05 12:20:00,83.9,67.6,30.12,SSW,200,11.0,14.0,58,0.00,,---,0.00,VWS V14.01,2013-07-05 16:20:00,
2013-07-05 12:25:00,83.8,68.9,30.12,West,272,1.0,18.0,61,0.00,,---,0.00,VWS V14.01,2013-07-05 16:25:00,
2013-07-05 12:30:00,83.9,68.5,30.12,WNW,288,2.0,18.0,60,0.00,,---,0.00,VWS V14.01,2013-07-05 16:30:00,
2013-07-05 12:35:00,84.2,67.8,30.12,SW,234,4.0,18.0,58,0.00,,---,0.00,VWS V14.01,2013-07-05 16:35:00,
2013-07-05 12:40:00,84.3,68.4,30.12,SW,229,4.0,11.0,59,0.00,,---,0.00,VWS V14.01,2013-07-05 16:40:00,
2013-07-05 12:45:00,84.0,68.6,30.11,West,260,2.0,11.0,60,0.00,,---,0.00,VWS V14.01,2013-07-05 16:45:00,
2013-07-05 12:50:00,84.2,68.8,30.11,ESE,121,1.0,8.0,60,0.00,,---,0.00,VWS V14.01,2013-07-05 16:50:00,
2013-07-05 12:55:00,84.8,68.9,30.11,SW,227,8.0,8.0,59,0.00,,---,0.00,VWS V14.01,2013-07-05 16:55:00,
2013-07-05 13:00:00,84.7,69.3,30.11,SSE,150,5.0,9.0,60,0.00,,---,0.00,VWS V14.01,2013-07-05 17:00:00,
2013-07-05 13:05:00,84.6,68.7,30.11,SW,222,4.0,10.0,59,0.00,,---,0.00,VWS V14.01,2013-07-05 17:05:00,
2013-07-05 13:10:00,85.0,69.6,30.11,SSW,213,9.0,10.0,60,0.00,,---,0.00,VWS V14.01,2013-07-05 17:10:00,
2013-07-05 13:15:00,85.4,67.9,30.11,SW,232,5.0,12.0,56,0.00,,---,0.00,VWS V14.01,2013-07-05 17:15:00,
2013-07-05 13:20:00,85.6,68.1,30.11,WSW,237,6.0,10.0,56,0.00,,---,0.00,VWS V14.01,2013-07-05 17:20:00,
2013-07-05 13:25:00,86.1,69.6,30.11,SSW,211,1.0,13.0,58,0.00,,---,0.00,VWS V14.01,2013-07-05 17:25:00,
2013-07-05 13:30:00,86.4,68.3,30.11,WSW,242,4.0,9.0,55,0.00,,---,0.00,VWS V14.01,2013-07-05 17:30:00,
2013-07-05 13:36:00,86.2,67.1,30.10,WSW,250,5.0,14.0,53,0.00,,---,0.00,VWS V14.01,2013-07-05 17:36:00,
2013-07-05 13:40:00,85.7,66.6,30.10,WSW,241,5.0,14.0,53,0.00,,---,0.00,VWS V14.01,2013-07-05 17:40:00,
2013-07-05 13:41:00,85.5,65.9,30.10,SSW,200,5.0,11.0,52,0.00,,---,0.00,VWS V14.01,2013-07-05 17:41:00,
2013-07-05 13:46:00,85.6,66.5,30.10,South,175,2.0,11.0,53,0.00,,---,0.00,VWS V14.01,2013-07-05 17:46:00,
2013-07-05 13:50:00,85.9,67.3,30.10,SSW,198,4.0,15.0,54,0.00,,---,0.00,VWS V14.01,2013-07-05 17:50:00,
2013-07-05 13:51:00,86.1,67.5,30.10,SW,217,4.0,13.0,54,0.00,,---,0.00,VWS V14.01,2013-07-05 17:51:00,
2013-07-05 13:56:00,85.9,67.3,30.09,SSW,208,2.0,15.0,54,0.00,,---,0.00,VWS V14.01,2013-07-05 17:56:00,
2013-07-05 14:00:00,86.0,69.0,30.09,ENE,67,0.0,15.0,57,0.00,,---,0.00,VWS V14.01,2013-07-05 18:00:00,
2013-07-05 14:01:00,86.1,69.1,30.10,SW,233,4.0,8.0,57,0.00,,---,0.00,VWS V14.01,2013-07-05 18:01:00,
2013-07-05 14:06:00,86.1,68.6,30.09,WSW,254,4.0,8.0,56,0.00,,---,0.00,VWS V14.01,2013-07-05 18:06:00,
2013-07-05 14:10:00,85.9,68.9,30.09,WSW,241,0.0,9.0,57,0.00,,---,0.00,VWS V14.01,2013-07-05 18:10:00,
2013-07-05 14:11:00,86.1,70.1,30.09,ENE,76,1.0,3.0,59,0.00,,---,0.00,VWS V14.01,2013-07-05 18:11:00,
2013-07-05 14:16:00,85.9,68.9,30.09,North,351,8.0,8.0,57,0.00,,---,0.00,VWS V14.01,2013-07-05 18:16:00,
2013-07-05 14:20:00,86.1,69.6,30.09,WSW,243,4.0,8.0,58,0.00,,---,0.00,VWS V14.01,2013-07-05 18:20:00,
2013-07-05 14:21:00,86.3,69.8,30.09,NW,321,0.0,7.0,58,0.00,,---,0.00,VWS V14.01,2013-07-05 18:21:00,
2013-07-05 14:26:00,86.3,69.3,30.09,ESE,116,2.0,10.0,57,0.00,,---,0.00,VWS V14.01,2013-07-05 18:26:00,
2013-07-05 14:30:00,86.6,69.6,30.09,SW,219,3.0,10.0,57,0.00,,---,0.00,VWS V14.01,2013-07-05 18:30:00,
2013-07-05 14:31:00,86.6,69.6,30.09,West,279,1.0,5.0,57,0.00,,---,0.00,VWS V14.01,2013-07-05 18:31:00,
2013-07-05 14:36:00,86.1,69.1,30.09,WSW,244,1.0,8.0,57,0.00,,---,0.00,VWS V14.01,2013-07-05 18:36:00,
2013-07-05 14:40:00,85.7,69.2,30.09,SW,230,5.0,8.0,58,0.00,,---,0.00,VWS V14.01,2013-07-05 18:40:00,
2013-07-05 14:41:00,85.2,68.8,30.09,WSW,242,2.0,9.0,58,0.00,,---,0.00,VWS V14.01,2013-07-05 18:41:00,
2013-07-05 14:46:00,84.7,68.8,30.09,WNW,296,2.0,9.0,59,0.00,,---,0.00,VWS V14.01,2013-07-05 18:46:00,
2013-07-05 14:50:00,84.7,68.8,30.09,South,173,1.0,9.0,59,0.00,,---,0.00,VWS V14.01,2013-07-05 18:50:00,
2013-07-05 14:51:00,85.0,68.1,30.09,WNW,299,2.0,8.0,57,0.00,,---,0.00,VWS V14.01,2013-07-05 18:51:00,
2013-07-05 14:56:00,84.8,67.9,30.09,SSW,208,2.0,9.0,57,0.00,,---,0.00,VWS V14.01,2013-07-05 18:56:00,
2013-07-05 15:00:00,84.8,69.4,30.09,ESE,123,4.0,9.0,60,0.00,,---,0.00,VWS V14.01,2013-07-05 19:00:00,
2013-07-05 15:01:00,85.0,68.6,30.09,SW,221,0.0,6.0,58,0.00,,---,0.00,VWS V14.01,2013-07-05 19:01:00,
2013-07-05 15:06:00,85.1,68.7,30.09,SW,234,2.0,8.0,58,0.00,,---,0.00,VWS V14.01,2013-07-05 19:06:00,
2013-07-05 15:10:00,85.4,69.0,30.09,WSW,249,5.0,8.0,58,0.00,,---,0.00,VWS V14.01,2013-07-05 19:10:00,
2013-07-05 15:11:00,85.6,70.1,30.08,SW,219,1.0,5.0,60,0.00,,---,0.00,VWS V14.01,2013-07-05 19:11:00,
2013-07-05 15:16:00,85.9,69.4,30.08,South,175,2.0,8.0,58,0.00,,---,0.00,VWS V14.01,2013-07-05 19:16:00,
2013-07-05 15:20:00,86.1,69.1,30.08,WSW,257,2.0,8.0,57,0.00,,---,0.00,VWS V14.01,2013-07-05 19:20:00,
2013-07-05 15:21:00,86.0,67.4,30.08,SSW,199,5.0,7.0,54,0.00,,---,0.00,VWS V14.01,2013-07-05 19:21:00,
2013-07-05 15:26:00,85.9,68.4,30.08,East,88,1.0,7.0,56,0.00,,---,0.00,VWS V14.01,2013-07-05 19:26:00,
2013-07-05 15:30:00,86.1,68.1,30.08,WSW,250,6.0,9.0,55,0.00,,---,0.00,VWS V14.01,2013-07-05 19:30:00,
2013-07-05 15:31:00,85.9,67.9,30.08,SSW,211,4.0,7.0,55,0.00,,---,0.00,VWS V14.01,2013-07-05 19:31:00,
2013-07-05 15:36:00,85.6,68.1,30.07,SW,221,2.0,11.0,56,0.00,,---,0.00,VWS V14.01,2013-07-05 19:36:00,
2013-07-05 15:40:00,85.7,68.7,30.08,South,172,4.0,11.0,57,0.00,,---,0.00,VWS V14.01,2013-07-05 19:40:00,
2013-07-05 15:41:00,85.7,67.7,30.08,SW,215,5.0,7.0,55,0.00,,---,0.00,VWS V14.01,2013-07-05 19:41:00,
2013-07-05 15:46:00,86.5,68.4,30.07,SW,230,0.0,7.0,55,0.00,,---,0.00,VWS V14.01,2013-07-05 19:46:00,
2013-07-05 15:50:00,86.6,68.5,30.07,South,188,3.0,7.0,55,0.00,,---,0.00,VWS V14.01,2013-07-05 19:50:00,
2013-07-05 15:51:00,86.4,68.3,30.07,South,173,9.0,10.0,55,0.00,,---,0.00,VWS V14.01,2013-07-05 19:51:00,
2013-07-05 15:57:00,86.4,69.4,30.07,WSW,248,1.0,11.0,57,0.00,,---,0.00,VWS V14.01,2013-07-05 19:57:00,
2013-07-05 16:00:00,86.6,68.5,30.07,West,268,4.0,11.0,55,0.00,,---,0.00,VWS V14.01,2013-07-05 20:00:00,
2013-07-05 16:02:00,86.2,68.2,30.07,SSE,163,7.0,7.0,55,0.00,,---,0.00,VWS V14.01,2013-07-05 20:02:00,
2013-07-05 16:07:00,85.0,68.6,30.07,SW,232,2.0,7.0,58,0.00,,---,0.00,VWS V14.01,2013-07-05 20:07:00,
2013-07-05 16:10:00,84.8,68.9,30.07,SE,145,0.0,7.0,59,0.00,,---,0.00,VWS V14.01,2013-07-05 20:10:00,
2013-07-05 16:12:00,84.7,68.3,30.07,South,175,1.0,3.0,58,0.00,,---,0.00,VWS V14.01,2013-07-05 20:12:00,
2013-07-05 16:17:00,84.4,69.0,30.07,SSE,149,0.0,3.0,60,0.00,,---,0.00,VWS V14.01,2013-07-05 20:17:00,
2013-07-05 16:20:00,84.4,68.5,30.07,West,271,1.0,3.0,59,0.00,,---,0.00,VWS V14.01,2013-07-05 20:20:00,
2013-07-05 16:22:00,84.2,67.8,30.07,SW,215,2.0,5.0,58,0.00,,---,0.00,VWS V14.01,2013-07-05 20:22:00,
2013-07-05 16:27:00,83.6,68.7,30.07,WSW,248,5.0,13.0,61,0.00,,---,0.00,VWS V14.01,2013-07-05 20:27:00,
2013-07-05 16:30:00,82.9,69.5,30.07,WSW,242,7.0,13.0,64,0.00,,---,0.00,VWS V14.01,2013-07-05 20:30:00,
2013-07-05 16:32:00,82.1,70.1,30.07,WSW,242,2.0,7.0,67,0.00,,---,0.00,VWS V14.01,2013-07-05 20:32:00,
2013-07-05 16:37:00,81.8,70.6,30.07,ENE,62,0.0,9.0,69,0.00,,---,0.00,VWS V14.01,2013-07-05 20:37:00,
2013-07-05 16:40:00,81.8,70.6,30.08,NE,38,1.0,9.0,69,0.00,,---,0.00,VWS V14.01,2013-07-05 20:40:00,
2013-07-05 16:42:00,81.5,69.9,30.07,SW,223,7.0,7.0,68,0.00,,---,0.00,VWS V14.01,2013-07-05 20:42:00,
2013-07-05 16:47:00,81.0,69.9,30.07,West,273,4.0,8.0,69,0.00,,---,0.00,VWS V14.01,2013-07-05 20:47:00,
2013-07-05 16:50:00,81.0,70.3,30.07,NW,315,5.0,8.0,70,0.00,,---,0.00,VWS V14.01,2013-07-05 20:50:00,
2013-07-05 16:52:00,81.0,70.3,30.07,WSW,254,1.0,6.0,70,0.00,,---,0.00,VWS V14.01,2013-07-05 20:52:00,
2013-07-05 16:57:00,81.3,71.0,30.07,WSW,249,0.0,9.0,71,0.00,,---,0.00,VWS V14.01,2013-07-05 20:57:00,
2013-07-05 17:00:00,81.5,70.8,30.07,SW,227,3.0,9.0,70,0.00,,---,0.00,VWS V14.01,2013-07-05 21:00:00,
2013-07-05 17:02:00,81.7,70.6,30.07,SE,128,0.0,6.0,69,0.00,,---,0.00,VWS V14.01,2013-07-05 21:02:00,
2013-07-05 17:07:00,82.1,70.1,30.07,SSW,210,1.0,6.0,67,0.00,,---,0.00,VWS V14.01,2013-07-05 21:07:00,
2013-07-05 17:10:00,82.2,70.2,30.07,SW,217,2.0,6.0,67,0.00,,---,0.00,VWS V14.01,2013-07-05 21:10:00,
2013-07-05 17:12:00,82.5,70.4,30.07,NW,307,0.0,3.0,67,0.00,,---,0.00,VWS V14.01,2013-07-05 21:12:00,
2013-07-05 17:17:00,83.2,70.7,30.07,South,174,5.0,7.0,66,0.00,,---,0.00,VWS V14.01,2013-07-05 21:17:00,
2013-07-05 17:20:00,83.1,70.1,30.07,South,172,5.0,8.0,65,0.00,,---,0.00,VWS V14.01,2013-07-05 21:20:00,
2013-07-05 17:22:00,82.8,70.7,30.07,SSW,207,0.0,7.0,67,0.00,,---,0.00,VWS V14.01,2013-07-05 21:22:00,
2013-07-05 17:27:00,82.5,70.0,30.07,WSW,242,2.0,7.0,66,0.00,,---,0.00,VWS V14.01,2013-07-05 21:27:00,
2013-07-05 17:30:00,82.4,69.9,30.07,SW,214,2.0,7.0,66,0.00,,---,0.00,VWS V14.01,2013-07-05 21:30:00,
2013-07-05 17:32:00,82.4,70.8,30.07,WSW,238,0.0,4.0,68,0.00,,---,0.00,VWS V14.01,2013-07-05 21:32:00,
2013-07-05 17:37:00,83.2,70.2,30.07,West,259,0.0,4.0,65,0.00,,---,0.00,VWS V14.01,2013-07-05 21:37:00,
2013-07-05 17:40:00,83.3,70.8,30.07,SW,230,2.0,4.0,66,0.00,,---,0.00,VWS V14.01,2013-07-05 21:40:00,
2013-07-05 17:42:00,83.2,70.2,30.06,SSW,211,1.0,4.0,65,0.00,,---,0.00,VWS V14.01,2013-07-05 21:42:00,
2013-07-05 17:47:00,83.5,70.5,30.06,SSW,207,2.0,5.0,65,0.00,,---,0.00,VWS V14.01,2013-07-05 21:47:00,
2013-07-05 17:50:00,83.5,70.1,30.06,SSE,156,6.0,7.0,64,0.00,,---,0.00,VWS V14.01,2013-07-05 21:50:00,
2013-07-05 17:52:00,83.1,69.7,30.06,SSW,192,2.0,6.0,64,0.00,,---,0.00,VWS V14.01,2013-07-05 21:52:00,
2013-07-05 17:57:00,82.9,70.8,30.06,SSW,203,3.0,7.0,67,0.00,,---,0.00,VWS V14.01,2013-07-05 21:57:00,
2013-07-05 18:00:00,82.9,69.9,30.06,SW,221,2.0,7.0,65,0.00,,---,0.00,VWS V14.01,2013-07-05 22:00:00,
2013-07-05 18:02:00,83.1,70.1,30.06,SSW,210,3.0,5.0,65,0.00,,---,0.00,VWS V14.01,2013-07-05 22:02:00,
2013-07-05 18:03:00,83.1,69.7,30.06,WSW,252,2.0,5.0,64,0.00,,---,0.00,VWS V14.01,2013-07-05 22:03:00,
2013-07-05 18:08:00,83.1,69.7,30.06,SSE,159,2.0,6.0,64,0.00,,---,0.00,VWS V14.01,2013-07-05 22:08:00,
2013-07-05 18:10:00,83.1,69.7,30.06,South,178,4.0,6.0,64,0.00,,---,0.00,VWS V14.01,2013-07-05 22:10:00,
2013-07-05 18:13:00,83.1,70.1,30.06,WSW,244,2.0,6.0,65,0.00,,---,0.00,VWS V14.01,2013-07-05 22:13:00,
2013-07-05 18:18:00,83.3,70.3,30.05,SSW,194,3.0,6.0,65,0.00,,---,0.00,VWS V14.01,2013-07-05 22:18:00,
2013-07-05 18:20:00,83.3,70.3,30.05,WSW,257,1.0,6.0,65,0.00,,---,0.00,VWS V14.01,2013-07-05 22:20:00,
2013-07-05 18:23:00,83.3,70.3,30.05,SSW,210,0.0,4.0,65,0.00,,---,0.00,VWS V14.01,2013-07-05 22:23:00,
2013-07-05 18:28:00,83.6,70.1,30.05,SW,236,4.0,4.0,64,0.00,,---,0.00,VWS V14.01,2013-07-05 22:28:00,
2013-07-05 18:30:00,83.6,70.1,30.05,West,263,0.0,4.0,64,0.00,,---,0.00,VWS V14.01,2013-07-05 22:30:00,
2013-07-05 18:33:00,84.0,70.5,30.05,WSW,244,0.0,1.0,64,0.00,,---,0.00,VWS V14.01,2013-07-05 22:33:00,
2013-07-05 18:38:00,83.9,70.4,30.06,SSW,213,2.0,2.0,64,0.00,,---,0.00,VWS V14.01,2013-07-05 22:38:00,
2013-07-05 18:40:00,83.9,70.4,30.06,SSW,207,1.0,2.0,64,0.00,,---,0.00,VWS V14.01,2013-07-05 22:40:00,
2013-07-05 18:43:00,83.4,69.0,30.06,WSW,239,1.0,5.0,62,0.00,,---,0.00,VWS V14.01,2013-07-05 22:43:00,
2013-07-05 18:48:00,83.1,69.2,30.06,SW,219,4.0,8.0,63,0.00,,---,0.00,VWS V14.01,2013-07-05 22:48:00,
2013-07-05 18:50:00,83.0,69.1,30.06,South,184,2.0,8.0,63,0.00,,---,0.00,VWS V14.01,2013-07-05 22:50:00,
2013-07-05 18:53:00,83.4,69.9,30.05,WSW,248,3.0,3.0,64,0.00,,---,0.00,VWS V14.01,2013-07-05 22:53:00,
2013-07-05 18:58:00,83.3,69.4,30.05,NE,55,0.0,5.0,63,0.00,,---,0.00,VWS V14.01,2013-07-05 22:58:00,
2013-07-05 19:00:00,83.4,69.5,30.05,NE,55,0.0,5.0,63,0.00,,---,0.00,VWS V14.01,2013-07-05 23:00:00,
2013-07-05 19:03:00,83.6,69.7,30.05,SW,232,0.0,2.0,63,0.00,,---,0.00,VWS V14.01,2013-07-05 23:03:00,
2013-07-05 19:08:00,83.5,70.1,30.06,SSW,205,2.0,6.0,64,0.00,,---,0.00,VWS V14.01,2013-07-05 23:08:00,
2013-07-05 19:10:00,83.5,70.1,30.06,SW,215,2.0,6.0,64,0.00,,---,0.00,VWS V14.01,2013-07-05 23:10:00,
2013-07-05 19:13:00,83.3,69.9,30.06,SSE,163,4.0,6.0,64,0.00,,---,0.00,VWS V14.01,2013-07-05 23:13:00,
2013-07-05 19:18:00,83.1,70.1,30.06,SSW,207,0.0,7.0,65,0.00,,---,0.00,VWS V14.01,2013-07-05 23:18:00,
2013-07-05 19:20:00,83.1,70.1,30.06,SSW,196,2.0,7.0,65,0.00,,---,0.00,VWS V14.01,2013-07-05 23:20:00,
2013-07-05 19:23:00,83.0,69.6,30.06,SSW,198,3.0,5.0,64,0.00,,---,0.00,VWS V14.01,2013-07-05 23:23:00,
2013-07-05 19:24:00,83.0,69.6,30.06,SSW,199,1.0,5.0,64,0.00,,---,0.00,VWS V14.01,2013-07-05 23:24:00,
2013-07-05 19:29:00,83.0,70.0,30.06,WSW,254,0.0,0.0,65,0.00,,---,0.00,VWS V14.01,2013-07-05 23:29:00,
2013-07-05 19:30:00,83.0,70.0,30.06,WSW,254,0.0,5.0,65,0.00,,---,0.00,VWS V14.01,2013-07-05 23:30:00,
2013-07-05 19:34:00,83.2,69.8,30.06,SW,227,2.0,2.0,64,0.00,,---,0.00,VWS V14.01,2013-07-05 23:34:00,
2013-07-05 19:39:00,83.2,69.3,30.06,WSW,246,0.0,0.0,63,0.00,,---,0.00,VWS V14.01,2013-07-05 23:39:00,
2013-07-05 19:40:00,83.2,69.3,30.06,SW,233,0.0,2.0,63,0.00,,---,0.00,VWS V14.01,2013-07-05 23:40:00,
2013-07-05 19:44:00,83.1,69.7,30.06,WSW,238,0.0,2.0,64,0.00,,---,0.00,VWS V14.01,2013-07-05 23:44:00,
2013-07-05 19:49:00,83.1,69.7,30.06,South,178,5.0,5.0,64,0.00,,---,0.00,VWS V14.01,2013-07-05 23:49:00,
2013-07-05 19:50:00,83.1,69.2,30.06,South,191,4.0,4.0,63,0.00,,---,0.00,VWS V14.01,2013-07-05 23:50:00,
2013-07-05 19:54:00,82.7,69.3,30.07,WSW,245,3.0,5.0,64,0.00,,---,0.00,VWS V14.01,2013-07-05 23:54:00,
2013-07-05 19:59:00,82.4,69.5,30.07,SW,236,0.0,0.0,65,0.00,,---,0.00,VWS V14.01,2013-07-05 23:59:00,
2013-07-05 20:00:00,82.4,69.5,30.07,WSW,245,0.0,5.0,65,0.00,,---,0.00,VWS V14.01,2013-07-06 00:00:00,
2013-07-05 20:04:00,82.0,69.5,30.07,SW,219,0.0,2.0,66,0.00,,---,0.00,VWS V14.01,2013-07-06 00:04:00,
2013-07-05 20:09:00,81.7,69.7,30.07,WSW,257,0.0,1.0,67,0.00,,---,0.00,VWS V14.01,2013-07-06 00:09:00,
2013-07-05 20:10:00,81.7,69.7,30.07,SSW,195,1.0,2.0,67,0.00,,---,0.00,VWS V14.01,2013-07-06 00:10:00,
2013-07-05 20:14:00,81.4,69.8,30.07,SSW,211,2.0,3.0,68,0.00,,---,0.00,VWS V14.01,2013-07-06 00:14:00,
2013-07-05 20:19:00,81.1,70.0,30.07,WSW,246,0.0,0.0,69,0.00,,---,0.00,VWS V14.01,2013-07-06 00:19:00,
2013-07-05 20:20:00,81.1,69.6,30.07,WSW,254,0.0,3.0,68,0.00,,---,0.00,VWS V14.01,2013-07-06 00:20:00,
2013-07-05 20:24:00,80.8,69.3,30.07,WSW,254,0.0,1.0,68,0.00,,---,0.00,VWS V14.01,2013-07-06 00:24:00,
2013-07-05 20:29:00,80.6,69.5,30.08,West,264,0.0,1.0,69,0.00,,---,0.00,VWS V14.01,2013-07-06 00:29:00,
2013-07-05 20:30:00,80.6,69.5,30.07,West,260,0.0,1.0,69,0.00,,---,0.00,VWS V14.01,2013-07-06 00:30:00,
2013-07-05 20:34:00,80.3,69.2,30.08,SW,232,0.0,1.0,69,0.00,,---,0.00,VWS V14.01,2013-07-06 00:34:00,
2013-07-05 20:39:00,79.9,69.2,30.08,SW,233,0.0,2.0,70,0.00,,---,0.00,VWS V14.01,2013-07-06 00:39:00,
2013-07-05 20:40:00,80.0,69.3,30.08,WSW,237,1.0,2.0,70,0.00,,---,0.00,VWS V14.01,2013-07-06 00:40:00,
2013-07-05 20:44:00,79.7,69.1,30.08,SW,234,0.0,2.0,70,0.00,,---,0.00,VWS V14.01,2013-07-06 00:44:00,
2013-07-05 20:49:00,79.6,69.4,30.08,WNW,287,0.0,0.0,71,0.00,,---,0.00,VWS V14.01,2013-07-06 00:49:00,
2013-07-05 20:50:00,79.6,69.4,30.08,NW,310,0.0,2.0,71,0.00,,---,0.00,VWS V14.01,2013-07-06 00:50:00,
2013-07-05 20:54:00,79.4,69.2,30.08,WSW,245,0.0,1.0,71,0.00,,---,0.00,VWS V14.01,2013-07-06 00:54:00,
2013-07-05 20:59:00,79.2,69.0,30.08,WSW,245,0.0,0.0,71,0.00,,---,0.00,VWS V14.01,2013-07-06 00:59:00,
2013-07-05 21:00:00,79.2,69.0,30.08,WSW,241,0.0,1.0,71,0.00,,---,0.00,VWS V14.01,2013-07-06 01:00:00,
2013-07-05 21:04:00,79.0,69.2,30.08,WSW,240,0.0,1.0,72,0.00,,---,0.00,VWS V14.01,2013-07-06 01:04:00,
2013-07-05 21:10:00,78.7,68.9,30.08,SW,226,0.0,0.0,72,0.00,,---,0.00,VWS V14.01,2013-07-06 01:10:00,
2013-07-05 21:15:00,78.7,69.3,30.07,SW,232,0.0,1.0,73,0.00,,---,0.00,VWS V14.01,2013-07-06 01:15:00,
2013-07-05 21:20:00,78.2,69.6,30.08,SW,227,0.0,0.0,75,0.00,,---,0.00,VWS V14.01,2013-07-06 01:20:00,
2013-07-05 21:25:00,77.7,69.2,30.08,SW,233,0.0,0.0,75,0.00,,---,0.00,VWS V14.01,2013-07-06 01:25:00,
2013-07-05 21:30:00,77.5,69.3,30.08,SSE,161,0.0,0.0,76,0.00,,---,0.00,VWS V14.01,2013-07-06 01:30:00,
2013-07-05 21:35:00,77.2,69.4,30.08,SSE,168,0.0,0.0,77,0.00,,---,0.00,VWS V14.01,2013-07-06 01:35:00,
2013-07-05 21:40:00,77.0,69.6,30.08,WSW,246,0.0,0.0,78,0.00,,---,0.00,VWS V14.01,2013-07-06 01:40:00,
2013-07-05 21:45:00,76.7,69.3,30.08,WSW,246,0.0,0.0,78,0.00,,---,0.00,VWS V14.01,2013-07-06 01:45:00,
2013-07-05 21:50:00,76.3,69.3,30.09,WSW,246,0.0,0.0,79,0.00,,---,0.00,VWS V14.01,2013-07-06 01:50:00,
2013-07-05 21:55:00,76.0,69.4,30.09,WSW,246,0.0,0.0,80,0.00,,---,0.00,VWS V14.01,2013-07-06 01:55:00,
2013-07-05 22:00:00,75.9,69.7,30.09,WSW,245,0.0,0.0,81,0.00,,---,0.00,VWS V14.01,2013-07-06 02:00:00,
2013-07-05 22:05:00,75.7,69.5,30.09,SSW,206,0.0,0.0,81,0.00,,---,0.00,VWS V14.01,2013-07-06 02:05:00,
2013-07-05 22:10:00,75.6,69.4,30.09,SW,217,0.0,0.0,81,0.00,,---,0.00,VWS V14.01,2013-07-06 02:10:00,
2013-07-05 22:15:00,75.4,69.5,30.09,SSW,209,0.0,0.0,82,0.00,,---,0.00,VWS V14.01,2013-07-06 02:15:00,
2013-07-05 22:20:00,75.3,69.4,30.09,SSW,206,0.0,0.0,82,0.00,,---,0.00,VWS V14.01,2013-07-06 02:20:00,
2013-07-05 22:25:00,75.0,69.5,30.09,SSW,192,0.0,0.0,83,0.00,,---,0.00,VWS V14.01,2013-07-06 02:25:00,
2013-07-05 22:30:00,74.9,69.4,30.10,WSW,239,0.0,0.0,83,0.00,,---,0.00,VWS V14.01,2013-07-06 02:30:00,
2013-07-05 22:35:00,74.9,69.4,30.09,WSW,240,0.0,0.0,83,0.00,,---,0.00,VWS V14.01,2013-07-06 02:35:00,
2013-07-05 22:40:00,75.2,69.7,30.09,WSW,239,0.0,0.0,83,0.00,,---,0.00,VWS V14.01,2013-07-06 02:40:00,
2013-07-05 22:45:00,75.2,69.7,30.09,WSW,240,0.0,0.0,83,0.00,,---,0.00,VWS V14.01,2013-07-06 02:45:00,
2013-07-05 22:50:00,75.0,69.5,30.09,SSW,213,0.0,0.0,83,0.00,,---,0.00,VWS V14.01,2013-07-06 02:50:00,
2013-07-05 22:51:00,75.0,69.5,30.09,SSW,212,0.0,0.0,83,0.00,,---,0.00,VWS V14.01,2013-07-06 02:51:00,
2013-07-05 22:56:00,74.8,69.3,30.09,SSW,213,0.0,0.0,83,0.00,,---,0.00,VWS V14.01,2013-07-06 02:56:00,
2013-07-05 23:00:00,74.8,69.3,30.09,SSW,213,0.0,0.0,83,0.00,,---,0.00,VWS V14.01,2013-07-06 03:00:00,
2013-07-05 23:01:00,74.7,69.2,30.09,SSW,213,0.0,0.0,83,0.00,,---,0.00,VWS V14.01,2013-07-06 03:01:00,
2013-07-05 23:06:00,74.6,69.4,30.09,SW,214,0.0,0.0,84,0.00,,---,0.00,VWS V14.01,2013-07-06 03:06:00,
2013-07-05 23:10:00,74.5,69.3,30.09,SW,214,0.0,0.0,84,0.00,,---,0.00,VWS V14.01,2013-07-06 03:10:00,
2013-07-05 23:11:00,74.4,69.6,30.09,SW,215,0.0,0.0,85,0.00,,---,0.00,VWS V14.01,2013-07-06 03:11:00,
2013-07-05 23:16:00,74.3,69.5,30.09,SW,219,0.0,0.0,85,0.00,,---,0.00,VWS V14.01,2013-07-06 03:16:00,
2013-07-05 23:20:00,74.4,69.2,30.10,SW,219,0.0,0.0,84,0.00,,---,0.00,VWS V14.01,2013-07-06 03:20:00,
2013-07-05 23:21:00,74.5,69.7,30.10,SW,219,0.0,0.0,85,0.00,,---,0.00,VWS V14.01,2013-07-06 03:21:00,
2013-07-05 23:26:00,74.4,69.3,30.10,SW,219,0.0,0.0,84,0.00,,---,0.00,VWS V14.01,2013-07-06 03:26:00,
2013-07-05 23:30:00,74.4,69.2,30.10,SW,219,0.0,0.0,84,0.00,,---,0.00,VWS V14.01,2013-07-06 03:30:00,
2013-07-05 23:31:00,74.4,69.3,30.10,SW,219,0.0,0.0,84,0.00,,---,0.00,VWS V14.01,2013-07-06 03:31:00,
2013-07-05 23:40:00,75.1,69.6,30.09,WSW,240,0.0,0.0,83,0.00,,---,0.00,VWS V14.01,2013-07-06 03:40:00,
2013-07-05 23:50:00,75.1,69.6,30.09,SSW,213,0.0,0.0,83,0.00,,---,0.00,VWS V14.01,2013-07-06 03:50:00,